Regional Weather Roundup
Issued by NWS

Current Version | Previous Version | Graphics & Text | Print | Product List | Glossary On
Versions: 1 2 3 4 5 6 7 8 9 10 11 12 13 14 15 16 17 18 19 20 21 22 23 24 25 26 27 28 29 30 31 32 33 34 35 36 37 38 39 40 41 42 43 44 45 46 47 48 49 50
000
ASHW40 PHFO 180730
RWRHI

WEATHER ROUNDUP FOR HAWAII
NATIONAL WEATHER SERVICE HONOLULU HI
900 PM HST WED DEC 17 2014

THIS IS AN AUTOMATED REPORT THAT HAS NOT BEEN QUALITY CONTROLLED.

NOTE..."FAIR" INDICATES FEW OR NO CLOUDS BELOW 12,000 FEET WITH NO
SIGNIFICANT WEATHER AND/OR OBSTRUCTIONS TO VISIBILITY.

* - THESE SITES REPORT LIMITED FIELDS

HIZ001>004-180800-
KAUAI-NIIHAU-

CITY           SKY/WX    TMP DP  RH WIND       PRES   REMARKS
LIHUE APT      PTCLDY    76  67  73 E16       30.19R
PORT ALLEN*      N/A     73 N/A N/A NE15        N/A
POIPU*           N/A     75 N/A N/A NE9G16      N/A
PRINCEVILLE*     N/A     72 N/A N/A MISG        N/A
KOKOLE POINT*  NOT AVBL
MOLOAA DAIRY*  NOT AVBL
WAIMEA HTS*    NOT AVBL
PUU OPAE*      NOT AVBL
PUU LUA*       NOT AVBL
MAKAHA RIDGE*  NOT AVBL
$$

HIZ005>011-180800-
OAHU-

CITY           SKY/WX    TMP DP  RH WIND       PRES   REMARKS
HONOLULU       PTCLDY    76  65  68 NE13G21   30.14S
KALAELOA       CLEAR     72  65  78 E3        30.16R
KANEOHE MCB    MOCLDY    75  67  76 E12G21    30.17R
WHEELER FIELD  FAIR      69  63  81 SE3       30.17R
BELLOWS*         N/A    N/A N/A N/A E22         N/A
KAHUKU*          N/A    N/A N/A N/A E12G23      N/A
WHEELER*       NOT AVBL
WAIANAE HARBOR NOT AVBL
DILLINGHAM*      N/A     68  63  83 E2          N/A
KAHUKU TRN*      N/A     72  66  83 E12G26      N/A
KAWAILOA*        N/A     70  64  83 E13G25      N/A
KII*             N/A     75  68  78 E22G30      N/A
MAKUA RANGE*     N/A     73  63  68 SE3G21      N/A
OAHU FOREST NW NOT AVBL
SCHOFIELD BRK*   N/A     68  63  83 MISG        N/A
SCHOFIELD S*   NOT AVBL
WAIANAE VLY*   NOT AVBL
KUAOKALA*      NOT AVBL
HONOULIUULI*   NOT AVBL
MOKUOLOE IS*     N/A    N/A N/A N/A MISG        N/A
PALEHUA*       NOT AVBL
WAIAWA PHB*    NOT AVBL
$$

HIZ012>013-180800-
MOLOKAI-

CITY           SKY/WX    TMP DP  RH WIND       PRES   REMARKS
MOLOKAI AIRPT  PTCLDY    72  68  87 NE12G23   30.16R
KALAUPAPA      NOT AVBL
MAKAPULAPAI*   NOT AVBL
MOLOKAI 1*     NOT AVBL
PUU ALII*        N/A     57  57 100 E3G16       N/A
$$

HIZ016-180800-
KAHOOLAWE-

CITY           SKY/WX    TMP DP  RH WIND       PRES   REMARKS
KAHOOLAWE*     NOT AVBL
HAKIOAWA*        N/A     69  66  89 MISG      30.59R
HONOKANAIA*      N/A     76  67  74 NE14G26   30.15R
KANELOA*         N/A     72  66  83 E16G33    29.35S
KEALIALALO*    NOT AVBL
LUA MAKIKA*    NOT AVBL
$$

HIZ014>015-180800-
LANAI-

CITY           SKY/WX    TMP DP  RH WIND       PRES   REMARKS
LANAI CITY     FAIR      69  67  93 NE10      30.20R
LANAI 1*       NOT AVBL
$$

HIZ017>028-180800-
MAUI-

CITY           SKY/WX    TMP DP  RH WIND       PRES   REMARKS
KAHULUI        LGT RAIN  72  68  87 NE18G26   30.16R
KAPALUA-W MAUI NOT AVBL
HANA AIRPORT   CLOUDY    75  66  73 E9        30.21R
HANA*            N/A     75 N/A N/A E7G15       N/A
HALEAKALA SUMM   N/A     48  10  21 E21         N/A
MAALAEA BAY*   NOT AVBL
HALEAKALA*     NOT AVBL
KAUPO GAP*     NOT AVBL
KULA 1*          N/A    N/A N/A N/A E7          N/A
$$

HIZ023>026-180800-
BIG ISLAND OF HAWAII COAST AND LOWER SLOPES-

CITY           SKY/WX    TMP DP  RH WIND       PRES   REMARKS
KAILUA KONA    CLEAR     76  66  71 SE6       30.11S
HILO           CLOUDY    74  67  78 E7        30.17R
HONOKAA*       NOT AVBL
KAWAIHAE MWT*    N/A     77 N/A N/A W5G12       N/A
KAWAIHAE*        N/A     79 N/A N/A N6          N/A
SOUTH POINT*     N/A     70 N/A N/A NE16G26     N/A
UPOLU AIRPORT*   N/A    N/A N/A N/A E16G26      N/A
KAMUELA*       CLOUDY    63  63 100 NE17      30.23S FOG
HAKALAU*         N/A     48  48 100 SW7         N/A
KALOKO-HONOKO*   N/A     73  64  73 E3          N/A
PALI 2*          N/A     63  59  88 N15G24      N/A
KEALAKOMO*       N/A     73  63  68 NE14G21     N/A
KAUPULEHU*     NOT AVBL
KAPAPALA*        N/A     67  59  76 CALM        N/A
LOWER KAHUKU*    N/A     61  61 100 N2G12       N/A
PUHE CS*       NOT AVBL
PUHO CS*         N/A     75  63  66 NE2         N/A
PTA KEAMUKU*     N/A     57  54  88 CALM        N/A
WAIKOLOA*      NOT AVBL
$$

HIZ027>028-180800-
BIG ISLAND OF HAWAII INTERIOR AND SUMMMITS-

CITY           SKY/WX    TMP DP  RH WIND       PRES   REMARKS
BRADSHAW FIELD CLEAR     47  43  83 SE6       30.44F
MK VISITOR CEN NOT AVBL
MAUNA KEA*       N/A     37 -17   9 SW1         N/A
MAUNA LOA*       N/A     45  -4  13 MISG        N/A
MAUNA LOA 1*   NOT AVBL
PTA KIPUKA*      N/A     54  52  94 SE7         N/A
PTA RANGE 17*    N/A     55  50  82 SE12G22     N/A
PTA WEST*        N/A     61  55  82 SE13G18     N/A
NENE CABIN*      N/A    N/A N/A N/A NE6G16      N/A
AHUMOA*        NOT AVBL
PTA PORTABLE*  NOT AVBL
PUU MALI*      NOT AVBL
$$

HIC003-180800-
NORTHWEST ISLANDS-

CITY           SKY/WX    TMP DP  RH WIND       PRES   REMARKS
MIDWAY ISLAND  MOCLDY    73  68  83 S14       30.17R
MIDWAY NOS*    NOT AVBL
FRENCH FRIGATE NOT AVBL
$$

PHZ110>124-180-180800-
BUOY REPORTS

STATION/POSITION TIME  TEMP    WIND        PRES    WAVE   SWELL
                       AIR SEA DIR/SP/G            HT/PER HT/DIR
                 (UTC) (F)     (DEG/KT/KT) (MB)    (FT/S) (FT/D)
BUOY 51001       NOT AVBL
BUOY 51101       0700   75 77   70/ 16/ 19 1022.9R   7/ 8   5/100
BUOY 51100       0700   74 75   80/ 17/ 21 1023.1R
BUOY 51003       0700   78 79   70/ 14/ 16 1019.7R   6/ 9   5
BUOY 51004       0608   77 78   70/ 19/ 21 1019.2R   8/ 8   5/ 70
BARBERS PT BUOY  NOT AVBL
WAIMEA BAY BUOY  0700      77                N/A     6/ 7   2/ 10
KAILUA BAY BUOY  0700      78                N/A     8/ 8   2/ 10
LANAI BUOY       0700      78                N/A     2/13   2/210
BARBERS PT 2     0700      78                N/A     4/13   2/250
PAUWELA MAUI     0700      77                N/A     7/ 8
HILO             0700      78                N/A     8/ 8   3/ 30
KANEOHE BAY BUOY 0700      77                N/A     7/ 8   2
HANALEI KAUAI    NOT AVBL
KAHULUI HARBOR   0700   74 76   40/ 12/ 19 1021.3R
HONOLULU HARBOR  0700   76      70/  7/ 13 1021.3R
KILO NALU        NOT AVBL
HILO HARBOR      0700   75     140/  4/  6 1021.1F
MOKUOLOE         0700   75 74   90/ 15/ 21 1021.8F
NAWILIWILI       0700      76                N/A
WHOTS BUOY       NOT AVBL
BUOY 51028       NOT AVBL
$$

......................KEY........................................
  SKY/WX - SKY CONDITIONS/PRESENT WEATHER
  TMP    - TEMPERATURE IN FAHRENHEIT
  DWPT   - DEWPOINT IN FAHRENHEIT
  RH     - RELATIVE HUMIDITY IN PERCENT
  WIND   - DIRECTION AND SPEED /MPH FOR ISLANDS...KTS FOR BUOYS/
  PRES   - MEAN SEA LEVEL PRESSURE IN INCHES OF HG
  VSB    - VISIBILITY IN MILES
  HX     - HEAT INDEX
  WCI    - WIND CHILL INDEX
  VRB    - VARIABLE WIND DIRECTION
  N/A    - NOT AVAILABLE


USA.gov is the U.S. government's official web portal to all federal, state and local government web resources and services.